Pregled zadnjih 96 podatkov za postajo Slovenske Konjice (37885)

Čas Temperatura 2 m (°C)  Relativna vlaga 2 m (% RH)  Padavine (mm)  Omočenost lista (U) 
17.11.2019 6:30:00 9,4 97,53 0 8
17.11.2019 6:00:00 9,28 98,19 0 10
17.11.2019 5:30:00 9,21 98,29 0 10
17.11.2019 5:00:00 9,16 98,51 0 10
17.11.2019 4:30:00 9,04 98,63 0 10
17.11.2019 4:00:00 8,94 98,46 0 10
17.11.2019 3:30:00 8,91 98,32 0 10
17.11.2019 3:00:00 8,99 98,36 0 10
17.11.2019 2:30:00 8,94 98,1 0 10
17.11.2019 2:00:00 8,86 98,02 0 10
17.11.2019 1:30:00 8,84 97,8 0 10
17.11.2019 1:00:00 8,89 97,44 0 10
17.11.2019 0:30:00 9,13 97,63 0 10
17.11.2019 9,3 97,53 0,2 10
16.11.2019 23:30:00 8,99 97,75 0 9
16.11.2019 23:00:00 8,79 97,97 0 8
16.11.2019 22:30:00 8,84 97,58 0 8
16.11.2019 22:00:00 8,91 98,07 0 9
16.11.2019 21:30:00 8,94 98,29 0 8
16.11.2019 21:00:00 9,28 98,41 0 8
16.11.2019 20:30:00 9,45 98,32 0,2 7
16.11.2019 20:00:00 9,55 98,24 0,4 8
16.11.2019 19:30:00 9,5 97,88 1 10
16.11.2019 19:00:00 9,57 97,41 0,4 8
16.11.2019 18:30:00 9,65 96,56 0 1
16.11.2019 18:00:00 10,01 95,43 0 0
16.11.2019 17:30:00 9,99 95,29 0 0
16.11.2019 17:00:00 10,11 94,85 0 0
16.11.2019 16:30:00 10,18 94,75 0 0
16.11.2019 16:00:00 10,35 94,53 0 0
16.11.2019 15:30:00 10,65 92,31 0 0
16.11.2019 15:00:00 11,11 89,99 0 0
16.11.2019 14:30:00 11,6 87,86 0 0
16.11.2019 14:00:00 11,82 85,62 0 0
16.11.2019 13:30:00 11,77 83,61 0 0
16.11.2019 13:00:00 11,94 81,44 0 0
16.11.2019 12:30:00 11,67 82,61 0 0
16.11.2019 12:00:00 11,23 87,06 0 0
16.11.2019 11:30:00 10,62 96,43 0 0
16.11.2019 11:00:00 10,06 99,19 0 1
16.11.2019 10:30:00 9,6 99,27 0 2
16.11.2019 10:00:00 9,28 99,34 0 4
16.11.2019 9:30:00 9,01 99,32 0 8
16.11.2019 9:00:00 8,96 99,41 0 8
16.11.2019 8:30:00 8,6 99,34 0 8
16.11.2019 8:00:00 8,38 99,34 0 8
16.11.2019 7:30:00 8,33 99,37 0 8
16.11.2019 7:00:00 8,45 99,37 0 8
16.11.2019 6:30:00 7,74 99,34 0 8
16.11.2019 6:00:00 7,67 99,24 0 8
16.11.2019 5:30:00 7,79 99,22 0 8
16.11.2019 5:00:00 8,01 99,15 0 8
16.11.2019 4:30:00 8,13 99,05 0 8
16.11.2019 4:00:00 8,23 99,02 0 7
16.11.2019 3:30:00 8,38 98,85 0,6 4
16.11.2019 3:00:00 8,52 98,73 1,6 4
16.11.2019 2:30:00 8,64 98,58 3,4 3
16.11.2019 2:00:00 8,96 98,75 4,6 3
16.11.2019 1:30:00 8,82 98,61 3,4 4
16.11.2019 1:00:00 8,57 98,34 2,8 8
16.11.2019 0:30:00 8,35 98,12 0,8 10
16.11.2019 8,01 97,8 0 10
15.11.2019 23:30:00 7,94 97,51 0 10
15.11.2019 23:00:00 7,96 97,26 0 10
15.11.2019 22:30:00 7,94 96,36 0 10
15.11.2019 22:00:00 8,5 95,56 0 10
15.11.2019 21:30:00 8,3 96,31 0 10
15.11.2019 21:00:00 7,89 96,65 0 10
15.11.2019 20:30:00 7,67 97,73 0 10
15.11.2019 20:00:00 7,52 97,29 0 10
15.11.2019 19:30:00 7,5 96,63 0 10
15.11.2019 19:00:00 7,79 95,7 0 10
15.11.2019 18:30:00 7,69 96,78 0 10
15.11.2019 18:00:00 7,42 96,17 0 10
15.11.2019 17:30:00 7,55 95,75 0 10
15.11.2019 17:00:00 7,74 94,92 0 10
15.11.2019 16:30:00 7,62 94,43 0 10
15.11.2019 16:00:00 8,11 93,16 0 10
15.11.2019 15:30:00 8,77 90,72 0 10
15.11.2019 15:00:00 8,96 90,09 0 10
15.11.2019 14:30:00 8,77 89,99 0 10
15.11.2019 14:00:00 8,64 90,84 0 10
15.11.2019 13:30:00 8,47 90,74 0 10
15.11.2019 13:00:00 8,55 89,79 0 10
15.11.2019 12:30:00 8,82 89,5 0 10
15.11.2019 12:00:00 8,6 90,55 0 10
15.11.2019 11:30:00 8,23 91,31 0 10
15.11.2019 11:00:00 7,57 95,02 0 10
15.11.2019 10:30:00 7,23 97,29 0 10
15.11.2019 10:00:00 7,03 98,41 0 10
15.11.2019 9:30:00 6,91 98,78 0 10
15.11.2019 9:00:00 6,76 98,9 0,2 10
15.11.2019 8:30:00 6,54 98,9 0 10
15.11.2019 8:00:00 6,35 98,88 0 10
15.11.2019 7:30:00 6,25 98,75 0 10
15.11.2019 7:00:00 6,15 98,71 0 10